Weather in Bolshiye Prudy

Russia / Oryol Oblast     53°01′44″N   37°05′11″E
temp.,
°C
wind,
m/s
gust,
m/s
humid.,
%
clouds,
%
prec.,
mm/h
press.,
hPa
HPBL,
m
13 april, tue
tue1300:00+12se5157078 0.0 1024277
03:00+9se3882100 0.0 1024115
06:00+8se41078100 0.0 1024159
09:00+13se5115955 0.0 1024345
12:00+18se6104346 0.0 10231079
15:00+20se7103195 0.0 10221788
18:00+18se611405 0.0 1021473
21:00+13se4105827 0.0 1021163
14 april, wed
wed1400:00+11se4107677 0.0 1021197
03:00+9se41092100 0.0 1021205
06:00+9sse3794100 0.0 1020132
09:00+13se357615 0.0 1020359
12:00+17se464987 0.0 10181292
15:00+18sse5830100 0.0 10171893
18:00+16se4740100 0.0 1016205
21:00+13sse234896 0.0 101743
15 april, thu
thu1500:00+10ssw1168100 0.0 101610
03:00+10e226999 0.0 101616
06:00+9ssw3682100 0.3 1016124
09:00+10ene358376 0.6 1016280
12:00+15sse46545 0.0 10141295
15:00+17sse4739100 0.1 10132520
18:00+15e4756100 0.1 1013271
21:00+12ene487861 0.9 1014184
16 april, fri
fri1600:00+11se368226 0.0 1014157
03:00+9se1186100 0.3 101415
06:00+9se2287100 0.0 101419
09:00+11s247571 0.1 1015281
12:00+15se5754100 0.2 10151367
15:00+16se5849100 1.0 10151967
18:00+15sse355594 0.4 1015230
21:00+11w3671100 0.6 1016161
17 april, sat
sat1700:00+9wnw2279100 0.0 101828
03:00+9wnw227985 0.0 101814
06:00+7nnw1186100 0.0 101811
09:00+11nne468094 0.0 1018425
12:00+16e71254100 0.2 10171252
15:00+18e91344100 0.2 10162618
18:00+14ese5866100 0.9 1018757
21:00+11e6119087 2.9 1021637